EW4565 Weather Reports


Display with metric or nautical units.
time (UTC)temp
F
wind
direction
speed
MPH
gust
MPH
rain 1hr
in
rain 24hr
in
rain mn
in
humidity
%
barometer
mb
20260903230413 67 88 1.0 5.0 0.00 0.13 0.13 43 1010.0
20260903225915 67 112 1.0 5.0 0.00 0.13 0.13 42 1010.0
20260903225414 67 190 1.0 5.0 0.00 0.13 0.13 41 1010.0
20260903224915 67 140 1.0 5.0 0.00 0.13 0.13 40 1010.0
20260903224546 67 96 1.0 5.0 0.00 0.13 0.13 44 1010.1
20260903224513 67 54 1.0 5.0 0.00 0.13 0.13 45 1010.1
20260903223413 66 251 2.0 5.0 0.00 0.13 0.13 44 1010.1
20260903223051 66 140 1.0 5.0 0.00 0.13 0.13 47 1010.2
20260903223018 66 135 1.0 5.0 0.00 0.13 0.13 44 1010.1
20260903221920 65 131 2.0 4.0 0.00 0.13 0.13 46 1010.2
20260903221730 65 67 1.0 4.0 0.00 0.13 0.13 47 1010.2
20260903220912 65 67 1.0 5.0 0.00 0.13 0.13 51 1010.3
20260903220412 65 125 1.0 5.0 0.00 0.13 0.13 49 1010.3
20260903215913 64 66 1.0 5.0 0.00 0.13 0.13 50 1010.2
20260903215415 64 66 1.0 6.0 0.00 0.13 0.13 51 1010.3
20260903214911 64 54 1.0 6.0 0.00 0.13 0.13 52 1010.4
20260903214412 64 63 2.0 8.0 0.00 0.13 0.13 55 1010.4
20260903213911 63 77 2.0 8.0 0.00 0.13 0.13 58 1010.5
20260903213410 63 83 1.0 6.0 0.00 0.13 0.13 59 1010.5
20260903212911 62 59 2.0 7.0 0.00 0.13 0.13 62 1010.5
20260903212406 60 87 2.0 9.0 0.00 0.13 0.13 67 1010.5
20260903211909 59 50 2.0 9.0 0.00 0.13 0.13 67 1010.5
20260903211405 59 57 2.0 7.0 0.00 0.13 0.13 65 1010.8
20260903210908 59 64 2.0 7.0 0.00 0.13 0.13 63 1011.1
20260903210409 60 64 1.0 6.0 0.00 0.13 0.13 58 1011.3
20260903205906 60 48 1.0 6.0 0.00 0.13 0.13 60 1011.2
20260903205408 60 60 1.0 5.0 0.00 0.13 0.13 58 1011.1
20260903204908 60 82 0.0 4.0 0.00 0.13 0.13 59 1010.9
20260903204407 60 69 1.0 6.0 0.00 0.13 0.13 60 1010.9
20260903203907 60 136 1.0 6.0 0.00 0.13 0.13 61 1010.9
20260903203406 60 77 1.0 7.0 0.00 0.13 0.13 60 1010.8
20260903203224 60 111 1.0 7.0 0.00 0.13 0.13 59 1010.8
20260903202408 60 175 1.0 7.0 0.00 0.13 0.13 62 1010.7
20260903201908 61 56 2.0 7.0 0.00 0.13 0.13 60 1010.6
20260903201407 61 152 2.0 11.0 0.00 0.13 0.13 58 1010.6
20260903200909 61 42 2.0 11.0 0.00 0.13 0.13 60 1010.6
20260903200418 62 182 1.0 6.0 0.00 0.13 0.13 60 1010.6
20260903195907 62 215 1.0 6.0 0.00 0.13 0.13 54 1010.6
20260903195720 62 112 0.0 3.0 0.00 0.13 0.13 56 1010.6
20260903194908 61 104 1.0 4.0 0.00 0.13 0.13 57 1010.6
20260903194715 61 104 1.0 5.0 0.00 0.13 0.13 57 1010.6
20260903193908 61 65 1.0 5.0 0.00 0.13 0.13 56 1010.6
20260903193406 61 87 1.0 8.0 0.00 0.13 0.13 56 1010.5
20260903192906 61 57 1.0 8.0 0.00 0.13 0.13 56 1010.5
20260903192404 61 150 2.0 10.0 0.00 0.13 0.13 55 1010.3
20260903191907 62 47 2.0 10.0 0.00 0.13 0.13 54 1010.5
20260903191724 62 155 1.0 9.0 0.00 0.13 0.13 56 1010.5
20260903191223 62 131 2.0 9.0 0.00 0.13 0.13 58 1010.5
20260903190402 62 198 1.0 8.0 0.00 0.13 0.13 56 1010.5
20260903190228 63 62 1.0 8.0 0.00 0.13 0.13 60 1010.5
20260903185404 63 128 1.0 6.0 0.00 0.13 0.13 64 1010.2
20260903184904 62 23 2.0 6.0 0.00 0.13 0.13 63 1010.2
20260903184402 62 73 2.0 7.0 0.00 0.13 0.13 64 1010.3
20260903183914 61 54 1.0 7.0 0.00 0.13 0.13 65 1010.3
20260903183726 60 72 1.0 5.0 0.00 0.13 0.13 65 1010.2
20260903182904 61 101 1.0 5.0 0.00 0.13 0.13 66 1010.3
20260903182408 61 148 1.0 5.0 0.00 0.13 0.13 64 1010.3
20260903181901 62 46 1.0 5.0 0.00 0.13 0.13 63 1010.2
20260903181359 62 143 1.0 4.0 0.00 0.13 0.13 62 1009.9
20260903180921 63 118 1.0 4.0 0.00 0.13 0.13 63 1010.0
20260903180402 64 68 1.0 8.0 0.00 0.13 0.13 65 1009.9
20260903175909 64 95 2.0 8.0 0.00 0.13 0.13 62 1009.8
20260903175400 63 70 2.0 6.0 0.00 0.13 0.13 68 1009.7
20260903174856 62 108 2.0 6.0 0.00 0.13 0.13 71 1009.7
20260903174410 62 127 2.0 9.0 0.00 0.13 0.13 71 1009.8
20260903173856 61 163 2.0 9.0 0.00 0.13 0.13 72 1009.8
20260903173411 61 155 2.0 7.0 0.00 0.13 0.13 75 1009.7
20260903173211 61 43 2.0 7.0 0.00 0.13 0.13 76 1009.6
20260903172724 60 56 1.0 6.0 0.00 0.13 0.13 79 1009.6
20260903171856 58 133 1.0 9.0 0.00 0.13 0.13 84 1009.6
20260903171357 57 51 1.0 9.0 0.00 0.13 0.13 84 1009.6
20260903171226 56 160 1.0 9.0 0.00 0.13 0.13 85 1009.5
20260903170354 56 93 1.0 9.0 0.00 0.13 0.13 85 1009.4
20260903170222 56 68 1.0 6.0 0.00 0.13 0.13 86 1009.5
20260903165356 56 63 0.0 6.0 0.00 0.13 0.13 86 1009.5
20260903164856 55 62 0.0 3.0 0.00 0.13 0.13 87 1009.5
20260903164354 55 62 1.0 4.0 0.00 0.13 0.13 87 1009.5
20260903163855 55 59 1.0 4.0 0.00 0.13 0.13 87 1009.5
20260903163343 55 56 0.0 5.0 0.00 0.13 0.13 87 1009.5
20260903162843 55 55 0.0 5.0 0.00 0.13 0.13 87 1009.5
20260903162343 55 56 0.0 3.0 0.00 0.13 0.13 87 1009.5
20260903161838 55 56 0.0 5.0 0.00 0.13 0.13 87 1009.4
20260903161338 54 55 0.0 5.0 0.00 0.13 0.13 87 1009.4
20260903160841 54 55 0.0 4.0 0.00 0.13 0.13 88 1009.4
20260903160337 54 55 0.0 4.0 0.00 0.13 0.13 88 1009.2
20260903160159 54 55 0.0 2.0 0.00 0.13 0.13 88 1009.2
20260903155337 54 55 0.0 2.0 0.00 0.13 0.13 89 1009.2
20260903154837 54 55 0.0 3.0 0.00 0.13 0.13 89 1009.4
20260903154336 54 55 0.0 3.0 0.01 0.13 0.13 88 1009.2
20260903153837 54 55 0.0 1.0 0.01 0.13 0.13 89 1009.1
20260903153337 54 55 0.0 3.0 0.01 0.13 0.13 89 1009.1
20260903152835 54 55 0.0 4.0 0.02 0.13 0.13 89 1009.1
20260903152520 54 55 0.0 3.0 0.02 0.13 0.13 89 1008.9
20260903152439 54 55 0.0 4.0 0.02 0.13 0.13 89 1009.0
20260903151332 54 55 0.0 3.0 0.02 0.13 0.13 89 1008.9
20260903150832 54 55 0.0 3.0 0.02 0.13 0.13 89 1008.9
20260903150500 54 55 0.0 0.0 0.04 0.09 0.13 89 1008.9
20260903150430 54 55 0.0 3.0 0.03 0.13 0.13 89 1008.8
20260903145331 54 55 0.0 0.0 0.05 0.09 0.13 89 1008.8
20260903145144 54 55 0.0 1.0 0.05 0.09 0.13 89 1008.8
20260903144644 53 55 0.0 4.0 0.04 0.09 0.13 89 1008.9
20260903143834 53 55 0.0 4.0 0.05 0.09 0.13 89 1008.8
20260903143332 53 55 0.0 4.0 0.05 0.09 0.12 89 1008.8
20260903142831 53 55 0.0 1.0 0.04 0.09 0.12 90 1008.7
20260903142330 53 55 0.0 1.0 0.05 0.09 0.12 90 1008.7
20260903141834 53 55 0.0 2.0 0.05 0.09 0.12 89 1008.7
20260903141332 53 55 0.0 2.0 0.04 0.09 0.11 89 1008.6
20260903141152 53 55 0.0 2.0 0.05 0.09 0.10 89 1008.6
20260903140331 53 55 0.0 2.0 0.04 0.09 0.09 89 1008.6
20260903135832 53 55 0.0 2.0 0.04 0.06 0.09 90 1008.6
20260903135329 53 55 0.0 0.0 0.03 0.06 0.09 90 1008.4
20260903134830 53 55 0.0 0.0 0.04 0.06 0.09 90 1008.5
20260903134330 53 55 0.0 0.0 0.01 0.06 0.09 90 1008.3
20260903133827 53 55 0.0 0.0 0.02 0.06 0.08 90 1008.3
20260903133327 53 55 0.0 0.0 0.02 0.06 0.08 90 1008.2
20260903133148 53 55 0.0 0.0 0.02 0.06 0.08 89 1008.1
20260903132327 53 55 0.0 0.0 0.02 0.06 0.07 89 1008.1
20260903132201 53 55 0.0 0.0 0.03 0.06 0.07 89 1008.1
20260903131328 53 55 0.0 0.0 0.03 0.06 0.07 89 1008.1
20260903130828 53 55 0.0 0.0 0.04 0.06 0.06 89 1008.0
20260903130328 53 55 0.0 0.0 0.04 0.06 0.06 89 1008.0
20260903125826 53 55 0.0 0.0 0.00 0.02 0.06 89 1007.9
20260903125649 53 55 0.0 0.0 0.00 0.02 0.06 89 1007.9
20260903125125 53 55 0.0 0.0 0.00 0.02 0.05 89 1007.9
20260903124556 53 55 0.0 0.0 0.04 0.05 0.05 89 1007.9
20260903124056 53 55 0.0 0.0 0.03 0.04 0.04 89 1007.7
20260903123549 53 55 0.0 0.0 0.03 0.04 0.04 89 1007.7
20260903123405 53 55 0.0 0.0 0.04 0.04 0.03 89 1007.7
20260903122547 53 55 0.0 0.0 0.03 0.03 0.03 89 1007.7
20260903122046 53 55 0.0 0.0 0.02 0.02 0.02 89 1007.7
20260903121904 53 55 0.0 0.0 0.02 0.02 0.02 89 1007.7
20260903121043 53 55 0.0 1.0 0.02 0.02 0.02 89 1007.7
20260903120541 53 55 0.0 1.0 0.02 0.02 0.02 89 1007.8
20260903120038 53 55 0.0 0.0 0.02 0.02 0.02 89 1007.8
20260903115537 53 55 0.0 0.0 0.02 0.02 0.02 89 1007.8
20260903115359 53 55 0.0 0.0 0.02 0.02 0.02 89 1007.8
20260903114530 53 55 0.0 0.0 0.01 0.01 0.01 89 1007.8
20260903114353 54 55 0.0 0.0 0.01 0.01 0.01 89 1007.7
20260903113531 54 55 0.0 0.0 0.01 0.01 0.01 88 1007.7
20260903113406 54 55 0.0 0.0 0.00 0.00 0.00 88 1007.8
20260903112528 54 55 0.0 0.0 0.00 0.00 0.00 88 1007.8
20260903112030 54 55 0.0 0.0 0.00 0.00 0.00 88 1007.7
20260903111532 54 55 0.0 0.0 0.00 0.00 0.00 88 1007.7
20260903111031 54 55 0.0 0.0 0.00 0.00 0.00 88 1007.7
20260903110530 54 55 0.0 0.0 0.00 0.00 0.00 88 1007.5
20260903110355 54 55 0.0 0.0 0.00 0.00 0.00 88 1007.7
20260903105529 54 55 0.0 0.0 0.00 0.00 0.00 88 1007.5
20260903105029 54 55 0.0 0.0 0.00 0.00 0.00 88 1007.4
20260903104530 54 55 0.0 0.0 0.00 0.00 0.00 88 1007.4
20260903104030 54 55 0.0 0.0 0.00 0.00 0.00 88 1007.4
20260903103529 54 55 0.0 0.0 0.00 0.00 0.00 88 1007.5
20260903103031 54 55 0.0 0.0 0.00 0.00 0.00 88 1007.4
20260903102530 54 55 0.0 0.0 0.00 0.00 0.00 88 1007.4
20260903102030 54 55 0.0 0.0 0.00 0.00 0.00 88 1007.4
20260903101532 53 55 0.0 0.0 0.00 0.00 0.00 88 1007.5
20260903101353 53 55 0.0 0.0 0.00 0.00 0.00 88 1007.5
20260903100532 53 55 0.0 0.0 0.00 0.00 0.00 88 1007.4
20260903100400 53 55 0.0 0.0 0.00 0.00 0.00 88 1007.5
20260903095531 53 55 0.0 0.0 0.00 0.00 0.00 88 1007.5
20260903095354 53 55 0.0 1.0 0.00 0.00 0.00 88 1007.5
20260903094534 53 55 0.0 1.0 0.00 0.00 0.00 88 1007.5
20260903094032 54 55 0.0 1.0 0.00 0.00 0.00 88 1007.5
20260903093533 54 55 0.0 0.0 0.00 0.00 0.00 88 1007.4
20260903093033 54 55 0.0 0.0 0.00 0.00 0.00 88 1007.4
20260903092532 54 55 0.0 0.0 0.00 0.00 0.00 88 1007.5
20260903092031 54 55 0.0 0.0 0.00 0.00 0.00 87 1007.5
20260903091907 54 55 0.0 0.0 0.00 0.00 0.00 87 1007.5
20260903091355 54 55 0.0 0.0 0.00 0.00 0.00 87 1007.7
20260903090533 54 55 0.0 0.0 0.00 0.00 0.00 87 1007.7
20260903090035 54 55 0.0 0.0 0.00 0.00 0.00 86 1007.8
20260903085532 54 55 0.0 0.0 0.00 0.00 0.00 86 1007.7
20260903085032 54 55 0.0 0.0 0.00 0.00 0.00 85 1007.7
20260903084534 55 55 0.0 2.0 0.00 0.00 0.00 84 1007.7
20260903084032 55 55 0.0 2.0 0.00 0.00 0.00 84 1007.5
20260903083531 55 55 0.0 0.0 0.00 0.00 0.00 84 1007.5
20260903083033 55 55 0.0 2.0 0.00 0.00 0.00 83 1007.7
20260903082533 55 55 0.0 2.0 0.00 0.00 0.00 83 1007.5
20260903082353 55 56 0.0 3.0 0.00 0.00 0.00 84 1007.5
20260903081532 55 56 0.0 3.0 0.00 0.00 0.00 84 1007.7
20260903081034 55 56 0.0 2.0 0.00 0.00 0.00 84 1007.7
20260903080532 55 56 0.0 1.0 0.00 0.00 0.00 84 1007.7
20260903080033 55 56 0.0 1.0 0.00 0.00 0.00 84 1007.7
20260903075532 55 56 0.0 3.0 0.00 0.00 0.00 83 1007.7
20260903075033 55 56 0.0 3.0 0.00 0.00 0.00 83 1007.7
20260903074533 55 56 1.0 3.0 0.00 0.00 0.00 82 1007.7
20260903074031 55 56 1.0 4.0 0.00 0.00 0.00 81 1007.7
20260903073531 55 56 2.0 5.0 0.00 0.00 0.00 81 1007.4
20260903073037 55 57 1.0 5.0 0.00 0.00 0.00 82 1007.7
20260903072531 54 71 0.0 2.0 0.00 0.00 0.00 84 1007.8
20260903072032 54 71 0.0 1.0 0.00 0.00 0.00 85 1007.8
20260903071533 54 71 0.0 0.0 0.00 0.00 0.00 85 1007.5
20260903071030 54 71 0.0 0.0 0.00 0.00 0.00 85 1007.5
20260903070850 54 71 0.0 0.0 0.00 0.00 0.00 85 1007.5
20260903070029 54 71 0.0 0.0 0.00 0.00 0.00 84 1007.4
20260903065530 54 71 0.0 0.0 0.00 0.00 0.00 84 1007.4
20260903065344 54 71 0.0 0.0 0.00 0.00 0.00 84 1007.3
20260903064529 54 71 0.0 0.0 0.00 0.00 0.00 84 1007.3
20260903064029 54 71 0.0 0.0 0.00 0.00 0.00 84 1007.3
20260903063529 54 71 0.0 0.0 0.00 0.00 0.00 85 1007.4
20260903063029 54 71 0.0 0.0 0.00 0.00 0.00 85 1007.4
20260903062845 53 71 0.0 0.0 0.00 0.00 0.00 85 1007.7
20260903062031 53 71 0.0 0.0 0.00 0.00 0.00 85 1007.9
20260903061529 53 71 0.0 0.0 0.00 0.00 0.00 85 1007.7
20260903061030 53 71 0.0 0.0 0.00 0.00 0.00 85 1007.8
20260903060529 53 71 0.0 0.0 0.00 0.00 0.00 85 1007.9
20260903060030 53 71 0.0 0.0 0.00 0.00 0.00 85 1007.9
20260903055530 53 71 0.0 0.0 0.00 0.00 0.00 85 1007.9
20260903055029 53 71 0.0 0.0 0.00 0.00 0.00 84 1007.8
20260903054530 53 71 0.0 0.0 0.00 0.00 0.00 85 1007.5
20260903054029 53 71 0.0 0.0 0.00 0.00 0.00 85 1007.7
20260903053530 53 71 0.0 0.0 0.00 0.00 0.00 86 1007.7
20260903053031 53 71 0.0 0.0 0.00 0.00 0.00 86 1007.7
20260903052847 53 71 0.0 0.0 0.00 0.00 0.00 85 1007.7
20260903052028 53 71 0.0 0.0 0.00 0.00 0.00 85 1007.8
20260903051530 53 71 0.0 0.0 0.00 0.00 0.00 85 1008.0
20260903051345 53 71 0.0 0.0 0.00 0.00 0.00 84 1008.0
20260903050530 53 71 0.0 0.0 0.00 0.00 0.00 84 1008.0
20260903050347 53 71 0.0 0.0 0.00 0.00 0.00 84 1008.1
20260903045847 53 71 0.0 0.0 0.00 0.00 0.00 84 1008.1
20260903045024 54 71 0.0 0.0 0.00 0.00 0.00 84 1008.0
20260903044656 54 71 0.0 0.0 0.00 0.00 0.00 84 1007.9
20260903044625 54 71 0.0 0.0 0.00 0.00 0.00 84 1007.9
20260903043519 54 71 0.0 0.0 0.00 0.00 0.00 84 1007.9
20260903043017 54 71 0.0 0.0 0.00 0.00 0.00 85 1007.9
20260903042515 54 71 0.0 0.0 0.00 0.00 0.00 84 1008.0
20260903042014 55 71 0.0 0.0 0.00 0.00 0.00 84 1007.9
20260903041516 55 71 0.0 0.0 0.00 0.00 0.00 83 1007.9
20260903041013 55 71 0.0 1.0 0.00 0.00 0.00 83 1007.8
20260903040510 55 71 0.0 1.0 0.00 0.00 0.00 83 1007.8
20260903040009 55 71 0.0 1.0 0.00 0.00 0.00 83 1007.8
20260903035508 55 71 0.0 1.0 0.00 0.00 0.00 84 1007.8
20260903035009 55 71 0.0 0.0 0.00 0.00 0.00 84 1007.8
20260903034825 55 71 0.0 0.0 0.00 0.00 0.00 84 1007.8
20260903034006 56 71 0.0 0.0 0.00 0.00 0.00 83 1007.8
20260903033507 56 71 0.0 0.0 0.00 0.00 0.00 83 1007.8
20260903033006 56 71 0.0 0.0 0.00 0.00 0.00 84 1007.8
20260903032504 56 71 0.0 0.0 0.00 0.00 0.00 83 1007.8
20260903032001 56 71 0.0 0.0 0.00 0.00 0.00 83 1007.5
20260903031501 57 71 0.0 0.0 0.00 0.00 0.00 83 1007.4
20260903031001 57 71 0.0 0.0 0.00 0.00 0.00 83 1007.4
20260903030501 57 71 0.0 0.0 0.00 0.00 0.00 82 1007.4
20260903030001 57 71 0.0 0.0 0.00 0.00 0.00 82 1007.4
20260903025500 57 71 0.0 0.0 0.00 0.00 0.00 82 1007.4
20260903025159 58 71 0.0 0.0 0.00 0.00 0.00 81 1007.5
20260903025125 57 71 0.0 0.0 0.00 0.00 0.00 81 1007.5
20260903024004 58 71 0.0 0.0 0.00 0.00 0.00 80 1007.5
20260903023504 58 71 0.0 3.0 0.00 0.00 0.00 80 1007.5
20260903023005 58 71 0.0 3.0 0.00 0.00 0.00 80 1007.7
20260903022506 58 73 0.0 4.0 0.00 0.00 0.00 79 1007.5
20260903022005 59 73 0.0 4.0 0.00 0.00 0.00 79 1007.7
20260903021506 59 80 0.0 3.0 0.00 0.00 0.00 78 1007.7
20260903021006 60 80 0.0 3.0 0.00 0.00 0.00 78 1007.7
20260903020504 60 79 0.0 1.0 0.00 0.00 0.00 78 1007.7
20260903020338 60 80 0.0 2.0 0.00 0.00 0.00 76 1007.5
20260903015503 60 80 0.0 2.0 0.00 0.00 0.00 74 1007.4
20260903015001 61 79 0.0 2.0 0.00 0.00 0.00 74 1007.5
20260903014503 61 80 0.0 4.0 0.00 0.00 0.00 74 1007.5
20260903014002 61 80 0.0 4.0 0.00 0.00 0.00 75 1007.7
20260903013836 61 79 0.0 2.0 0.00 0.00 0.00 76 1007.9
20260903013003 60 80 0.0 2.0 0.00 0.00 0.00 76 1007.9
20260903012502 60 80 0.0 2.0 0.00 0.00 0.00 77 1007.9
20260903012001 60 79 0.0 3.0 0.00 0.00 0.00 78 1007.9
20260903011502 59 79 0.0 3.0 0.00 0.00 0.00 80 1007.9
20260903011002 59 80 0.0 0.0 0.00 0.00 0.00 80 1008.0
20260903010502 59 79 0.0 0.0 0.00 0.00 0.00 80 1008.0
20260903010001 59 80 0.0 0.0 0.00 0.00 0.00 80 1008.0
20260903005503 59 79 0.0 2.0 0.00 0.00 0.00 80 1008.1
20260903005322 59 81 0.0 2.0 0.00 0.00 0.00 79 1008.1
20260903004821 59 80 0.0 2.0 0.00 0.00 0.00 78 1008.3
20260903004001 59 80 0.0 2.0 0.00 0.00 0.00 77 1008.4
20260903003503 59 60 0.0 2.0 0.00 0.00 0.00 76 1008.3
20260903003001 59 60 0.0 1.0 0.00 0.00 0.00 77 1008.3
20260903002827 59 60 0.0 1.0 0.00 0.00 0.00 78 1008.3
20260903002001 59 60 0.0 2.0 0.00 0.00 0.00 77 1008.3
20260903001502 59 60 0.0 2.0 0.00 0.00 0.00 78 1008.3
20260903001004 59 60 0.0 5.0 0.00 0.00 0.00 79 1008.3
20260903000848 59 60 1.0 5.0 0.00 0.00 0.00 79 1008.4
20260903000002 58 64 0.0 4.0 0.00 0.00 0.00 80 1008.3
20260902235835 58 96 0.0 2.0 0.00 0.00 0.00 80 1008.2
20260902235002 58 95 0.0 3.0 0.00 0.00 0.00 81 1008.2
20260902234502 58 96 0.0 3.0 0.00 0.00 0.00 82 1008.1
20260902234335 59 99 0.0 3.0 0.00 0.00 0.00 82 1008.1
20260902233500 59 86 0.0 1.0 0.00 0.00 0.00 82 1008.0
20260902233002 59 86 0.0 2.0 0.00 0.00 0.00 81 1007.9
20260902232505 59 86 0.0 2.0 0.00 0.00 0.00 81 1008.0
20260902232327 59 86 0.0 2.0 0.00 0.00 0.00 81 1007.8
20260902231504 59 86 0.0 1.0 0.00 0.00 0.00 81 1007.8
20260902231322 60 86 0.0 1.0 0.00 0.00 0.00 80 1007.9